www.pogodaiklimat.ru

Погода и климат >> Архив погоды >> Россия >> Дагестан >> Дербент


АРХИВ ПОГОДЫ в Дербенте

Время (UTC), дата Ветер
(напр.,м/с)
 
Видим.   Явления Облачность Т
(С)
Тd
(С)
f
(%)
Тe
(С)
Тes
(С)
Комфортность P
(гПа)
Po
(гПа)
Тmin
(С)
Tmax
(С)
R
(мм)
R24
(мм)
S
(см)
09 9.07 С 4 20 км 4/0
[Ci sp]
+32.7 +17.6 41 +37 +49 очень
душно
1005.1 1007.1
12 9.07 С 2 20 км 9/9 300 м
[Cb cap]
+28.3 +20.1 61 +35 +36 очень
душно
1006.3 1008.4
15 9.07 З 4 4000 м слаб. ливневой дождь 10/10 300 м
[Cb cap]
+24.8 +18.8 69 +30 +30 душно 1006.7 1008.8 +33.1 3
18 9.07 З 3
{11}
10 км {ливн. осадки} 10/10 300 м
[Cb cap]
+28.5 +13.0 38 +30 +30 жарко 1007.4 1009.4
21 9.07 З 2 10 км 8/8 300 м
[Cb cap]
+29.5 +11.7 33 +30 +30 жарко 1006.8 1008.8
00 10.07 СЗ 3
{11}
10 км 8/8 600 м
[Sc]
+26.4 +15.1 50 +29 +29 жарко 1007.3 1009.4
03 10.07 СЗ 3 20 км 9/9 600 м
[Sc]
+27.1 +14.0 45 +29 +30 жарко 1008.9 1011.0 +24.8 0.3
06 10.07 СЗ 5-11
{11}
20 км 8/8 600 м
[Sc]
+29.9 +14.1 38 +32 +33 жарко 1008.2 1010.2
09 10.07 С 5
{11}
20 км ясно +31.2 +15.2 38 +34 +44 душно 1007.4 1009.4
12 10.07 С 4 20 км ясно +30.6 +14.6 38 +33 +40 душно 1006.9 1008.9
15 10.07 С 3 20 км ясно +26.8 +18.7 61 +32 +33 очень
душно
1006.9 1008.9 +32.8
18 10.07 СЗ 1 10 км ясно +24.5 +20.1 76 +30 +30 очень
душно
1007.6 1009.7
21 10.07 СЗ 1 10 км ясно +23.9 +19.0 74 +29 +29 душно 1006.6 1008.7
00 11.07 штиль 0 10 км {ливн. осадки} 10/10 300 м
[Cb cap]
+22.2 +16.8 71 +27 +27 душно 1005.8 1007.9
03 11.07 ЮВ 2 20 км ясно +24.2 +19.0 73 +29 +31 душно 1005.6 1007.7 +21.3 0.5
06 11.07 В 4 20 км ясно +27.4 +19.3 61 +33 +42 очень
душно
1004.9 1006.9
09 11.07 ЮВ 3 20 км 4/4 600 м
[Cu hum]
+26.8 +21.2 71 +34 +44 очень
душно
1003.6 1005.6
12 11.07 ЮВ 3 20 км 8/8 600 м
[Cu med, cong]
+27.2 +21.2 70 +34 +36 очень
душно
1001.7 1003.7
15 11.07 ЮВ 2 20 км 8/8 600 м
[Sc]
+25.4 +21.5 79 +32 +33 очень
душно
1000.9 1002.9 +28.3
18 11.07 Ю 2 10 км 5/5 600 м
[Sc]
+24.6 +21.5 83 +31 +31 очень
душно
1000.6 1002.6
21 11.07 СЗ 5-11
{11}
10 км 9/9 600 м
[Sc]
+24.2 +20.9 82 +30 +30 очень
душно
1000.4 1002.5
00 12.07 СЗ 2
{11}
10 км ясно +23.9 +20.9 83 +30 +30 очень
душно
999.5 1001.6
03 12.07 СЗ 3 20 км ясно +25.0 +21.2 79 +32 +33 очень
душно
999.1 1001.2 +23.7
06 12.07 С 5 20 км ясно +28.5 +21.9 67 +37 +43 очень
душно
998.8 1000.8
09 12.07 С 4 20 км ясно +30.8 +20.9 56 +38 +51 опасность
солнечного
удара
999.0 1001.0
12 12.07 С 5-10
{12}
20 км 8/3 600 м
[Cu med, cong Ac trans]
+31.0 +19.2 49 +36 +39 очень
душно
1001.2 1003.2
15 12.07 С 6-12
{13}
20 км 9/9 300 м
[Cb cap]
+25.9 +18.2 63 +31 +31 очень
душно
1004.1 1006.2 +31.3
18 12.07 СЗ 3
{15}
10 км 8/4 300 м
[Cb cap Ac cuf]
+23.6 +16.9 66 +27 +27 жарко 1007.3 1009.4
21 12.07 С 6-13
{13}
4000 м гроза, ливневой дождь 10/10 300 м
[Cb cap]
+21.4 +18.0 81 +26 +26 душно 1007.9 1010.0
00 13.07 СЗ 5-11
{15}
10 км в посл. час ливневой дождь {гроза} 10/10 300 м
[Cb cap]
+21.0 +16.6 76 +25 +25 комфорт 1007.2 1009.3
03 13.07 СЗ 3
{11}
20 км 9/9 300 м
[Cb cap]
+21.2 +16.0 72 +25 +25 комфорт 1009.0 1011.1 +20.9 2
06 13.07 С 5 20 км 9/8 300 м
[Cb cap Ac trans]
+22.3 +15.2 64 +26 +27 жарко 1009.1 1011.2
09 13.07 С 4
{11}
20 км 8/5 300 м
[Cb cap Ac trans]
+23.2 +15.7 63 +28 +32 душно 1008.7 1010.8
12 13.07 С 5
{11}
20 км 8/8 600 м
[Sc]
+24.5 +15.1 56 +27 +29 жарко 1009.1 1011.2
15 13.07 СЗ 3 20 км 9/9 600 м
[Sc]
+22.6 +14.6 61 +26 +26 жарко 1009.2 1011.3 +25.7
18 13.07 СЗ 3 10 км 8/8 600 м
[Sc]
+21.2 +15.2 69 +24 +24 комфорт 1010.4 1012.5
21 13.07 СЗ 4 10 км 8/8 600 м
[Sc]
+21.4 +15.6 70 +25 +25 комфорт 1009.8 1011.9
00 14.07 СЗ 4 10 км 9/9 600 м
[Sc]
+21.0 +15.0 69 +24 +24 комфорт 1010.0 1012.1
03 14.07 СЗ 4
{10}
20 км 9/9 300 м
[Cb cap]
+18.7 +14.7 78 +19 +20 холодно 1010.7 1012.8 +18.7
06 14.07 З 2 20 км 8/6 300 м
[Cb cap Ac trans]
+20.9 +14.8 68 +25 +28 комфорт 1010.8 1012.9 +18.7
09 14.07 С 4 20 км 6/0
[Ac trans]
+25.2 +16.6 59 +29 +37 душно 1010.1 1012.1
12 14.07 С 3 20 км 8/6 300 м
[Cb cap Ac trans]
+23.8 +16.2 62 +27 +30 жарко 1011.0 1013.1
15 14.07 С 3 20 км 4/0
[Ac trans]
+22.7 +15.7 65 +27 +27 душно 1011.8 1013.8 +26.1
18 14.07 З 1 10 км ясно +20.3 +14.5 69 +24 +24 комфорт 1012.0 1014.1
21 14.07 штиль 0 10 км ясно +19.4 +14.5 73 +21 +21 комфорт 1010.4 1012.5
00 15.07 Ю 2 10 км ясно +19.8 +15.1 74 +22 +22 комфорт 1009.2 1011.3
03 15.07 ЮВ 3 20 км ясно +20.9 +14.6 67 +24 +26 комфорт 1008.8 1010.9 +19.3
06 15.07 ЮВ 3 20 км 8/8 600 м
[Sc]
+22.5 +16.7 70 +27 +29 душно 1008.8 1010.9
09 15.07 ЮВ 4 20 км 8/8 300 м
[Cb cap]
+23.6 +16.6 65 +27 +30 жарко 1007.0 1009.1
12 15.07 ЮВ 3
{11}
20 км 9/9 300 м
[Cb cap]
+23.5 +17.5 69 +27 +28 душно 1005.5 1007.6
15 15.07 ЮВ 3 20 км 9/9 300 м
[Cb cap]
+23.8 +17.5 68 +28 +28 душно 1004.2 1006.3 +24.3
18 15.07 В 2 10 км 9/9 300 м
[Cb cap]
+22.7 +18.3 76 +28 +28 душно 1004.3 1006.4
21 15.07 штиль 0 10 км 8/8 300 м
[Cb cap]
+22.4 +18.1 77 +28 +28 душно 1003.2 1005.3
00 16.07 СЗ 4 10 км 8/8 300 м
[Cb cap]
+22.0 +18.1 79 +27 +27 душно 1003.3 1005.4
03 16.07 СЗ 4 4000 м слаб. ливневой дождь 10/10 300 м
[Cb cap]
+21.0 +19.0 88 +26 +26 душно 1004.3 1006.3 +20.5 2
06 16.07 С 2 20 км {ливн. осадки} 6/3 300 м
[Cb cap Ac trans]
+24.6 +20.3 77 +30 +37 очень
душно
1004.2 1006.3

 

Местоположение метеостанции Дербент (Дагестан, Россия): широта 42.07 долгота 48.30 высота над уровнем моря -17 м.

В архиве по умолчанию представлена погода в Дербенте за последнюю неделю. Архивные данные за месяц целиком и за предыдущие месяцы, начиная с января 2011 года, Вы можете получить, выбрав интересующий диапазон дат из раскрывающегося списка и нажав кнопку "Ввод!".


*Определитесь, кто Вы:
робот инопланетянин человек

Внимание! Время в таблицах - всемирное. Для получения местного времени необходимо прибавить поправку, которая равна 3 ч.

Смотрите также архив погоды в соседних городах и на ближайших метеорологических станциях:

Погода в Касумкенте (Дагестан, Россия) (46 км)
Погода в Изберге (Дагестан, Россия) (60 км)
Погода в Сергокале (Дагестан, Россия) (67 км)
Погода в Губе (Азербайджан) (80 км)
Погода в Ахты (Дагестан, Россия) (81 км)
Погода в Кумухе (Дагестан, Россия) (98 км)
Погода в Куппе (Дагестан, Россия) (107 км)
Погода в Гунибе (Дагестан, Россия) (116 км)
Погода в Махачкале (Дагестан, Россия) (125 км)
Погода в Габале (Азербайджан) (126 км)

Пояснения к столбцам:

Ветер - указаны скорость ветра в м/с - средняя за 10 мин, порывы в срок и между сроками (в фигурных скобках) и направление, откуда дует ветер: С - северный, СВ - северо-восточный, В - восточный, ЮВ - юго-восточный, Ю - южный, ЮЗ - юго-западный, З - западный, СЗ - северо-западный.
Видимость - горизонтальная дальность видимости в метрах или километрах. При видимости от 1 до 10 км при отсутствии осадков обычно наблюдается дымка, при ухудшении видимости до 1 км и менее - туман. В сухую погоду видимость может ухудшаться дымом, пылью или мглою.
Явления - указаны атмосферные явления, наблюдавшиеся в срок или в последний час перед сроком; фигурными скобками обозначены явления, наблюдавшиеся между сроками (за 1-3 часа до срока); квадратными скобками обозначены град или гололедные отложения с указанием их диаметра в мм.
Облачность - указаны через наклонную черту общая и нижняя облачность в баллах и высота нижней границы облаков в метрах; квадратными скобками обозначены формы облаков: Ci - перистые, Cs - перисто-слоистые, Cc - перисто-кучевые, Ac - высококучевые, As - высокослоистые, Sc - слоисто-кучевые, Ns - слоисто-дождевые, Cu - кучевые, Cb - кучево-дождевые. Подробнее классификацию облаков см. в Атласе облаков (PDF).
T - Температура воздуха - температура, измеренная на высоте 2 м над землей.
Td - Температура точки росы - температура, при понижении до которой содержащийся в воздухе водяной пар достигнет насыщения.
f - Относительная влажность воздуха - влажноcть воздуха, измеренная на высоте 2 м над землей.
Te - Эффективная температура - температура, которую ощущает одетый по сезону человек в тени. Характеристика душности погоды. При расчете учитывается влияние влажности воздуха и скорости ветра на теплоощущения человека.
Tes - Эффективная температура на солнце - температура, которую ощущает человек, с поправкой на солнечный нагрев. Характеристика знойности погоды. Зависит от высоты солнца над горизонтом, облачности и скорости ветра. Ночью, в пасмурную погоду, а также при ветре 12 м/с и более поправка равна нулю.
P - Атмосферное давление - приведенное к уровню моря атмосферное давление.
Po - Атмосферное давление - измеренное на уровне метеостанции атмосферное давление.
Tmin - Минимальная температура - минимум температуры воздуха на высоте 2 м над землей.
Tmax - Максимальная температура - максимум температуры воздуха на высоте 2 м над землей.
R - Количество осадков - Количество выпавших осадков за период времени, мм. При наведении курсора мыши на число - период времени, за который выпало указанное количество осадков.
R24 - Количество осадков - Количество выпавших осадков за 24 часа, мм.
S - Снежный покров - Высота снежного покрова, см. При наведении курсора мыши на число - состояние снежного покрова и степень покрытия местности в баллах.